Regional Weather Roundup
Issued by NWS

Home | Current Version | Previous Version | Text Only | Print | Product List | Glossary Off
Versions: 1 2 3 4 5 6 7 8 9 10 11 12 13 14 15 16 17 18 19 20 21 22 23 24 25 26 27 28 29 30 31 32 33 34 35 36 37 38 39 40 41 42 43 44 45 46 47 48 49 50

000
ASUS43 KBIS 262002
RWRND

NORTH DAKOTA REGIONAL WEATHER ROUNDUP
NATIONAL WEATHER SERVICE BISMARCK ND
300 PM CDT FRI MAY 26 2017

NOTE: "FAIR" INDICATES FEW OR NO CLOUDS BELOW 12,000 FEET WITH NO
SIGNIFICANT WEATHER AND/OR OBSTRUCTIONS TO VISIBILITY.


NDZ001>003-009>011-017-262100-
NORTHWEST NORTH DAKOTA

CITY           SKY/WX    TMP DP  RH WIND       PRES   REMARKS
WILLISTON      PTSUNNY   70  35  27 W22G28    29.77S
MINOT          PTSUNNY   65  41  41 W21G29    29.72S
MINOT AFB      MOSUNNY   64  42  44 NW23      29.70F
$$

NDZ018>021-031>035-040>046-262100-
SOUTHWEST NORTH DAKOTA

CITY           SKY/WX    TMP DP  RH WIND       PRES   REMARKS
BISMARCK       CLOUDY    67  41  38 W18       29.78R
DICKINSON      CLOUDY    65  33  30 NW23G33   29.80R
GARRISON         N/A     62  40  44 NW22G32   29.75R
HETTINGER ARPT PTSUNNY   64  36  35 NW22G32   29.85S
$$

NDZ004>008-012>016-024-026-027-054-262100-
NORTHEAST NORTH DAKOTA

CITY           SKY/WX    TMP DP  RH WIND       PRES   REMARKS
GRAND FORKS    PTSUNNY   67  46  47 W20       29.69R
GRND FRKS AFB  CLOUDY    64  45  48 W10       29.70R
DEVILS LAKE    PTSUNNY   63  45  51 W21G26    29.70F
$$

NDZ022-023-025-028>030-036>039-047>053-262100-
SOUTHEAST NORTH DAKOTA

CITY           SKY/WX    TMP DP  RH WIND       PRES   REMARKS
FARGO          PTSUNNY   72  44  36 W20G26    29.71R
JAMESTOWN      CLOUDY    61  44  53 NW14      29.75S
$$




USA.gov is the U.S. government's official web portal to all federal, state and local government web resources and services.